| time (UTC) | temp C | wind direction | speed KPH | gust KPH | rain 1hr cm | rain 24hr cm | rain mn cm | humidity % | barometer mb |
| 20260507080019 | 11 | 161 | 0.0 | 3.2 | 0.03 | 0.36 | 0.03 | 96 | 1005.7 |
| 20260507075506 | 11 | 161 | 0.0 | 3.2 | 0.03 | 0.36 | 0.03 | 96 | 1005.9 |
| 20260507075010 | 11 | 161 | 0.0 | 1.6 | 0.03 | 0.36 | 0.03 | 96 | 1006.0 |
| 20260507074522 | 11 | 161 | 0.0 | 0.0 | 0.03 | 0.36 | 0.03 | 96 | 1006.2 |
| 20260507073005 | 11 | 161 | 0.0 | 3.2 | 0.00 | 0.33 | 0.00 | 96 | 1006.1 |
| 20260507072504 | 11 | 161 | 0.0 | 3.2 | 0.00 | 0.33 | 0.00 | 96 | 1006.2 |
| 20260507072003 | 11 | 161 | 0.0 | 3.2 | 0.00 | 0.33 | 0.00 | 96 | 1006.3 |
| 20260507071506 | 11 | 161 | 0.0 | 3.2 | 0.00 | 0.33 | 0.00 | 96 | 1006.2 |
| 20260507071003 | 11 | 161 | 0.0 | 3.2 | 0.00 | 0.33 | 0.00 | 96 | 1006.3 |
| 20260507070504 | 11 | 158 | 0.0 | 4.8 | 0.00 | 0.33 | 0.00 | 96 | 1006.6 |
| 20260507070012 | 11 | 168 | 0.0 | 4.8 | 0.00 | 0.33 | 0.00 | 96 | 1006.6 |
| 20260507065505 | 11 | 197 | 0.0 | 3.2 | 0.00 | 0.33 | 0.00 | 96 | 1006.6 |
| 20260507065003 | 11 | 197 | 1.6 | 3.2 | 0.00 | 0.33 | 0.00 | 96 | 1006.6 |
| 20260507064504 | 11 | 198 | 1.6 | 3.2 | 0.00 | 0.33 | 0.00 | 96 | 1006.5 |
| 20260507064003 | 11 | 169 | 0.0 | 3.2 | 0.00 | 0.33 | 0.00 | 96 | 1006.3 |
| 20260507063507 | 11 | 185 | 0.0 | 3.2 | 0.00 | 0.33 | 0.00 | 96 | 1006.2 |
| 20260507063007 | 11 | 167 | 1.6 | 3.2 | 0.00 | 0.33 | 0.00 | 95 | 1006.5 |
| 20260507062503 | 11 | 167 | 1.6 | 6.4 | 0.00 | 0.33 | 0.00 | 96 | 1006.5 |
| 20260507062003 | 11 | 184 | 1.6 | 6.4 | 0.00 | 0.33 | 0.00 | 96 | 1006.8 |
| 20260507061504 | 11 | 189 | 1.6 | 3.2 | 0.00 | 0.33 | 0.00 | 96 | 1006.8 |
| 20260507061004 | 11 | 187 | 1.6 | 4.8 | 0.00 | 0.33 | 0.00 | 95 | 1006.8 |
| 20260507060505 | 11 | 188 | 1.6 | 4.8 | 0.00 | 0.33 | 0.00 | 95 | 1007.0 |
| 20260507060004 | 11 | 169 | 1.6 | 3.2 | 0.00 | 0.33 | 0.00 | 95 | 1007.1 |
| 20260507055504 | 11 | 203 | 1.6 | 3.2 | 0.00 | 0.33 | 0.00 | 95 | 1007.0 |
| 20260507055008 | 11 | 191 | 0.0 | 4.8 | 0.00 | 0.33 | 0.00 | 95 | 1007.3 |
| 20260507054507 | 11 | 195 | 1.6 | 4.8 | 0.00 | 0.33 | 0.00 | 95 | 1007.3 |
| 20260507054003 | 11 | 176 | 1.6 | 4.8 | 0.00 | 0.33 | 0.00 | 95 | 1007.3 |
| 20260507053505 | 11 | 184 | 1.6 | 8.0 | 0.00 | 0.33 | 0.00 | 95 | 1007.2 |
| 20260507053003 | 11 | 211 | 3.2 | 8.0 | 0.00 | 0.33 | 0.00 | 95 | 1007.3 |
| 20260507052503 | 11 | 205 | 1.6 | 4.8 | 0.00 | 0.33 | 0.00 | 96 | 1007.5 |
| 20260507052006 | 11 | 189 | 1.6 | 4.8 | 0.00 | 0.33 | 0.00 | 95 | 1007.5 |
| 20260507051506 | 11 | 160 | 1.6 | 11.3 | 0.00 | 0.33 | 0.00 | 95 | 1007.4 |
| 20260507051006 | 11 | 205 | 3.2 | 11.3 | 0.00 | 0.33 | 0.00 | 95 | 1007.7 |
| 20260507050505 | 11 | 181 | 1.6 | 4.8 | 0.00 | 0.33 | 0.00 | 95 | 1007.8 |
| 20260507050014 | 11 | 176 | 3.2 | 6.4 | 0.00 | 0.33 | 0.00 | 95 | 1007.8 |
| 20260507045505 | 12 | 155 | 1.6 | 6.4 | 0.00 | 0.33 | 0.00 | 95 | 1007.9 |
| 20260507045004 | 12 | 181 | 1.6 | 6.4 | 0.00 | 0.33 | 0.00 | 95 | 1007.7 |
| 20260507044508 | 12 | 177 | 3.2 | 6.4 | 0.00 | 0.33 | 0.00 | 96 | 1007.9 |
| 20260507044007 | 12 | 162 | 1.6 | 3.2 | 0.00 | 0.33 | 0.00 | 95 | 1007.8 |
| 20260507043507 | 12 | 186 | 1.6 | 3.2 | 0.00 | 0.33 | 0.00 | 95 | 1007.6 |
| 20260507043016 | 12 | 158 | 1.6 | 3.2 | 0.00 | 0.33 | 0.00 | 95 | 1007.7 |
| 20260507042509 | 12 | 176 | 1.6 | 6.4 | 0.00 | 0.33 | 0.00 | 95 | 1007.6 |
| 20260507042006 | 12 | 191 | 1.6 | 6.4 | 0.00 | 0.33 | 0.00 | 95 | 1007.7 |
| 20260507041509 | 12 | 158 | 1.6 | 4.8 | 0.00 | 0.33 | 0.00 | 95 | 1007.8 |
| 20260507041008 | 12 | 168 | 1.6 | 4.8 | 0.00 | 0.33 | 0.00 | 95 | 1008.0 |
| 20260507040506 | 12 | 205 | 1.6 | 6.4 | 0.00 | 0.33 | 0.00 | 95 | 1008.2 |
| 20260507040009 | 12 | 174 | 1.6 | 6.4 | 0.00 | 0.33 | 0.00 | 95 | 1008.3 |
| 20260507035510 | 12 | 191 | 1.6 | 9.7 | 0.00 | 0.33 | 0.33 | 95 | 1008.2 |
| 20260507035007 | 12 | 195 | 3.2 | 11.3 | 0.00 | 0.33 | 0.33 | 95 | 1008.1 |
| 20260507034520 | 12 | 204 | 4.8 | 11.3 | 0.00 | 0.33 | 0.33 | 95 | 1008.0 |
| 20260507034003 | 12 | 210 | 1.6 | 8.0 | 0.00 | 0.33 | 0.33 | 95 | 1008.2 |
| 20260507033503 | 12 | 181 | 1.6 | 8.0 | 0.00 | 0.33 | 0.33 | 95 | 1008.1 |
| 20260507033015 | 12 | 160 | 1.6 | 6.4 | 0.00 | 0.33 | 0.33 | 95 | 1008.2 |
| 20260507032507 | 12 | 172 | 3.2 | 6.4 | 0.00 | 0.33 | 0.33 | 95 | 1008.0 |
| 20260507032010 | 12 | 175 | 3.2 | 8.0 | 0.00 | 0.33 | 0.33 | 95 | 1007.9 |
| 20260507031512 | 12 | 174 | 3.2 | 6.4 | 0.00 | 0.33 | 0.33 | 95 | 1007.8 |
| 20260507031003 | 12 | 199 | 3.2 | 4.8 | 0.00 | 0.33 | 0.33 | 95 | 1007.9 |
| 20260507030509 | 12 | 179 | 3.2 | 6.4 | 0.00 | 0.33 | 0.33 | 95 | 1007.9 |
| 20260507030014 | 12 | 167 | 1.6 | 9.7 | 0.00 | 0.33 | 0.33 | 95 | 1007.9 |
| 20260507025505 | 12 | 168 | 1.6 | 9.7 | 0.00 | 0.33 | 0.33 | 95 | 1007.9 |
| 20260507025005 | 12 | 153 | 1.6 | 6.4 | 0.00 | 0.33 | 0.33 | 95 | 1007.9 |
| 20260507024515 | 12 | 148 | 3.2 | 6.4 | 0.00 | 0.33 | 0.33 | 95 | 1008.0 |
| 20260507024008 | 12 | 159 | 1.6 | 6.4 | 0.00 | 0.33 | 0.33 | 95 | 1008.1 |
| 20260507023504 | 12 | 187 | 1.6 | 6.4 | 0.00 | 0.33 | 0.33 | 95 | 1008.2 |
| 20260507023011 | 12 | 186 | 3.2 | 6.4 | 0.00 | 0.33 | 0.33 | 95 | 1008.3 |
| 20260507022505 | 12 | 154 | 1.6 | 6.4 | 0.00 | 0.33 | 0.33 | 95 | 1008.4 |
| 20260507022008 | 13 | 177 | 1.6 | 6.4 | 0.00 | 0.33 | 0.33 | 95 | 1008.4 |
| 20260507021514 | 13 | 153 | 3.2 | 6.4 | 0.00 | 0.33 | 0.33 | 95 | 1008.5 |
| 20260507021008 | 13 | 150 | 1.6 | 8.0 | 0.00 | 0.33 | 0.33 | 95 | 1008.6 |
| 20260507020507 | 13 | 143 | 3.2 | 8.0 | 0.00 | 0.33 | 0.33 | 95 | 1008.7 |
| 20260507020022 | 13 | 139 | 3.2 | 8.0 | 0.00 | 0.33 | 0.33 | 95 | 1008.6 |
| 20260507015506 | 13 | 180 | 3.2 | 8.0 | 0.00 | 0.33 | 0.33 | 95 | 1008.6 |
| 20260507015008 | 13 | 134 | 3.2 | 9.7 | 0.00 | 0.33 | 0.33 | 95 | 1008.7 |
| 20260507014516 | 13 | 193 | 1.6 | 9.7 | 0.00 | 0.33 | 0.33 | 95 | 1008.7 |
| 20260507014004 | 13 | 186 | 3.2 | 9.7 | 0.00 | 0.33 | 0.33 | 95 | 1008.8 |
| 20260507013505 | 13 | 175 | 4.8 | 11.3 | 0.03 | 0.33 | 0.33 | 95 | 1008.8 |
| 20260507013015 | 13 | 183 | 4.8 | 12.9 | 0.03 | 0.33 | 0.33 | 95 | 1008.9 |
| 20260507012504 | 13 | 172 | 3.2 | 12.9 | 0.03 | 0.33 | 0.33 | 95 | 1008.8 |
| 20260507012007 | 13 | 160 | 4.8 | 11.3 | 0.03 | 0.33 | 0.33 | 95 | 1008.7 |
| 20260507011523 | 13 | 148 | 3.2 | 8.0 | 0.03 | 0.33 | 0.33 | 95 | 1008.8 |
| 20260507011006 | 13 | 181 | 3.2 | 8.0 | 0.03 | 0.33 | 0.33 | 95 | 1008.8 |
| 20260507010507 | 13 | 168 | 3.2 | 9.7 | 0.05 | 0.33 | 0.33 | 95 | 1008.7 |
| 20260507010016 | 13 | 155 | 3.2 | 9.7 | 0.05 | 0.33 | 0.33 | 95 | 1008.8 |
| 20260507005507 | 13 | 153 | 3.2 | 9.7 | 0.05 | 0.33 | 0.33 | 95 | 1008.8 |
| 20260507005007 | 13 | 143 | 4.8 | 12.9 | 0.05 | 0.33 | 0.33 | 95 | 1008.7 |
| 20260507004516 | 13 | 145 | 3.2 | 12.9 | 0.05 | 0.33 | 0.33 | 95 | 1008.6 |
| 20260507004010 | 13 | 145 | 3.2 | 9.7 | 0.05 | 0.33 | 0.33 | 95 | 1008.5 |
| 20260507003508 | 13 | 157 | 4.8 | 9.7 | 0.05 | 0.30 | 0.30 | 95 | 1008.6 |
| 20260507003015 | 13 | 151 | 3.2 | 8.0 | 0.08 | 0.30 | 0.30 | 95 | 1008.7 |
| 20260507002506 | 13 | 132 | 3.2 | 9.7 | 0.08 | 0.30 | 0.30 | 95 | 1008.7 |
| 20260507002006 | 13 | 121 | 1.6 | 9.7 | 0.10 | 0.30 | 0.30 | 95 | 1008.8 |
| 20260507001543 | 13 | 183 | 4.8 | 8.0 | 0.13 | 0.30 | 0.30 | 95 | 1008.6 |
| 20260507001008 | 13 | 140 | 3.2 | 6.4 | 0.15 | 0.30 | 0.30 | 95 | 1008.7 |
| 20260507000507 | 13 | 169 | 3.2 | 6.4 | 0.15 | 0.28 | 0.28 | 95 | 1008.7 |
| 20260507000023 | 13 | 136 | 1.6 | 6.4 | 0.18 | 0.28 | 0.28 | 95 | 1008.7 |
| 20260506235506 | 13 | 195 | 1.6 | 6.4 | 0.18 | 0.28 | 0.28 | 95 | 1008.6 |
| 20260506235009 | 13 | 165 | 1.6 | 6.4 | 0.20 | 0.28 | 0.28 | 95 | 1008.5 |
| 20260506234518 | 13 | 162 | 1.6 | 4.8 | 0.20 | 0.28 | 0.28 | 94 | 1008.6 |
| 20260506234006 | 13 | 160 | 1.6 | 9.7 | 0.20 | 0.28 | 0.28 | 94 | 1008.7 |
| 20260506233506 | 13 | 113 | 1.6 | 9.7 | 0.20 | 0.25 | 0.25 | 94 | 1008.6 |
| 20260506233019 | 13 | 130 | 1.6 | 4.8 | 0.20 | 0.23 | 0.23 | 94 | 1008.6 |
| 20260506232509 | 13 | 114 | 1.6 | 8.0 | 0.23 | 0.23 | 0.23 | 94 | 1008.6 |
| 20260506232009 | 13 | 164 | 1.6 | 8.0 | 0.20 | 0.20 | 0.20 | 94 | 1008.7 |
| 20260506231520 | 13 | 190 | 1.6 | 8.0 | 0.18 | 0.18 | 0.18 | 94 | 1008.8 |
| 20260506231004 | 13 | 165 | 1.6 | 8.0 | 0.15 | 0.15 | 0.15 | 94 | 1008.9 |
| 20260506230509 | 13 | 173 | 3.2 | 8.0 | 0.13 | 0.13 | 0.13 | 93 | 1009.1 |
| 20260506230015 | 13 | 143 | 1.6 | 8.0 | 0.10 | 0.10 | 0.10 | 93 | 1009.2 |
| 20260506225503 | 13 | 164 | 1.6 | 8.0 | 0.10 | 0.10 | 0.10 | 93 | 1009.2 |
| 20260506225003 | 13 | 172 | 3.2 | 8.0 | 0.08 | 0.08 | 0.08 | 92 | 1009.1 |
| 20260506224501 | 13 | 186 | 3.2 | 6.4 | 0.08 | 0.08 | 0.08 | 92 | 1009.2 |
| 20260506224003 | 14 | 124 | 1.6 | 6.4 | 0.08 | 0.08 | 0.08 | 92 | 1009.3 |
| 20260506223503 | 14 | 171 | 3.2 | 6.4 | 0.05 | 0.05 | 0.05 | 91 | 1009.3 |
| 20260506223003 | 14 | 156 | 3.2 | 8.0 | 0.03 | 0.03 | 0.03 | 90 | 1009.4 |
| 20260506222505 | 14 | 158 | 3.2 | 8.0 | 0.00 | 0.00 | 0.00 | 89 | 1009.5 |
| 20260506222003 | 14 | 188 | 3.2 | 8.0 | 0.00 | 0.00 | 0.00 | 89 | 1009.4 |
| 20260506221511 | 14 | 190 | 1.6 | 6.4 | 0.00 | 0.00 | 0.00 | 89 | 1009.3 |
| 20260506221004 | 14 | 151 | 3.2 | 6.4 | 0.00 | 0.00 | 0.00 | 89 | 1009.3 |
| 20260506220507 | 15 | 167 | 1.6 | 6.4 | 0.00 | 0.00 | 0.00 | 88 | 1009.3 |
| 20260506220016 | 15 | 152 | 3.2 | 6.4 | 0.00 | 0.00 | 0.00 | 86 | 1009.2 |
| 20260506215507 | 15 | 143 | 3.2 | 6.4 | 0.00 | 0.00 | 0.00 | 84 | 1009.3 |
| 20260506215008 | 15 | 182 | 1.6 | 4.8 | 0.00 | 0.00 | 0.00 | 84 | 1009.2 |
| 20260506214517 | 15 | 168 | 3.2 | 4.8 | 0.00 | 0.00 | 0.00 | 83 | 1009.3 |
| 20260506214004 | 15 | 163 | 3.2 | 4.8 | 0.00 | 0.00 | 0.00 | 83 | 1009.3 |
| 20260506213505 | 15 | 139 | 1.6 | 6.4 | 0.00 | 0.00 | 0.00 | 84 | 1009.4 |
| 20260506213003 | 15 | 159 | 3.2 | 6.4 | 0.00 | 0.00 | 0.00 | 84 | 1009.5 |
| 20260506212504 | 15 | 168 | 1.6 | 6.4 | 0.00 | 0.00 | 0.00 | 83 | 1009.6 |
| 20260506212007 | 15 | 148 | 1.6 | 6.4 | 0.00 | 0.00 | 0.00 | 83 | 1009.6 |
| 20260506211506 | 15 | 134 | 3.2 | 6.4 | 0.00 | 0.00 | 0.00 | 82 | 1009.6 |
| 20260506211007 | 16 | 140 | 1.6 | 6.4 | 0.00 | 0.00 | 0.00 | 81 | 1009.5 |
| 20260506210507 | 16 | 180 | 1.6 | 8.0 | 0.00 | 0.00 | 0.00 | 80 | 1009.6 |
| 20260506210022 | 16 | 165 | 4.8 | 8.0 | 0.00 | 0.00 | 0.00 | 80 | 1009.8 |
| 20260506205509 | 16 | 162 | 3.2 | 6.4 | 0.00 | 0.00 | 0.00 | 80 | 1009.7 |
| 20260506205005 | 16 | 174 | 3.2 | 6.4 | 0.00 | 0.00 | 0.00 | 79 | 1009.6 |
| 20260506204516 | 16 | 126 | 1.6 | 6.4 | 0.00 | 0.00 | 0.00 | 79 | 1009.7 |
| 20260506204009 | 16 | 141 | 3.2 | 8.0 | 0.00 | 0.00 | 0.00 | 80 | 1009.8 |
| 20260506203511 | 16 | 184 | 3.2 | 8.0 | 0.00 | 0.00 | 0.00 | 79 | 1009.8 |
| 20260506203021 | 16 | 119 | 3.2 | 6.4 | 0.00 | 0.00 | 0.00 | 78 | 1009.9 |
| 20260506202503 | 16 | 169 | 3.2 | 6.4 | 0.00 | 0.00 | 0.00 | 78 | 1010.0 |
| 20260506202004 | 16 | 154 | 1.6 | 9.7 | 0.00 | 0.00 | 0.00 | 78 | 1009.9 |
| 20260506201506 | 16 | 180 | 1.6 | 9.7 | 0.00 | 0.00 | 0.00 | 78 | 1009.9 |
| 20260506201003 | 16 | 160 | 3.2 | 9.7 | 0.00 | 0.00 | 0.00 | 78 | 1009.8 |
| 20260506200504 | 16 | 113 | 3.2 | 9.7 | 0.00 | 0.00 | 0.00 | 78 | 1010.1 |
| 20260506200010 | 16 | 127 | 1.6 | 8.0 | 0.00 | 0.00 | 0.00 | 78 | 1010.2 |
| 20260506195504 | 16 | 283 | 1.6 | 8.0 | 0.00 | 0.00 | 0.00 | 78 | 1010.1 |
| 20260506195005 | 16 | 156 | 3.2 | 6.4 | 0.00 | 0.00 | 0.00 | 77 | 1010.2 |
| 20260506194516 | 16 | 172 | 3.2 | 6.4 | 0.00 | 0.00 | 0.00 | 77 | 1010.3 |
| 20260506194008 | 16 | 126 | 3.2 | 9.7 | 0.00 | 0.00 | 0.00 | 77 | 1010.5 |
| 20260506193507 | 16 | 158 | 3.2 | 9.7 | 0.00 | 0.00 | 0.00 | 77 | 1010.4 |
| 20260506193032 | 16 | 150 | 3.2 | 6.4 | 0.00 | 0.00 | 0.00 | 77 | 1010.4 |
| 20260506192510 | 16 | 145 | 1.6 | 6.4 | 0.00 | 0.00 | 0.00 | 77 | 1010.4 |
| 20260506192010 | 16 | 191 | 1.6 | 6.4 | 0.00 | 0.00 | 0.00 | 77 | 1010.4 |
| 20260506191524 | 16 | 74 | 3.2 | 6.4 | 0.00 | 0.00 | 0.00 | 76 | 1010.6 |
| 20260506191003 | 16 | 146 | 3.2 | 6.4 | 0.00 | 0.00 | 0.00 | 76 | 1010.4 |
| 20260506190502 | 16 | 134 | 1.6 | 8.0 | 0.00 | 0.00 | 0.00 | 76 | 1010.4 |
| 20260506190007 | 16 | 184 | 3.2 | 8.0 | 0.00 | 0.00 | 0.00 | 76 | 1010.3 |
| 20260506185510 | 17 | 138 | 3.2 | 8.0 | 0.00 | 0.00 | 0.00 | 74 | 1010.4 |
| 20260506185006 | 17 | 170 | 3.2 | 8.0 | 0.00 | 0.00 | 0.00 | 74 | 1010.5 |
| 20260506184515 | 17 | 162 | 3.2 | 8.0 | 0.00 | 0.00 | 0.00 | 75 | 1010.7 |
| 20260506184006 | 17 | 184 | 3.2 | 8.0 | 0.00 | 0.00 | 0.00 | 75 | 1010.7 |
| 20260506183507 | 17 | 154 | 3.2 | 8.0 | 0.00 | 0.00 | 0.00 | 75 | 1011.0 |
| 20260506183018 | 17 | 205 | 3.2 | 8.0 | 0.00 | 0.00 | 0.00 | 74 | 1011.0 |
| 20260506182511 | 17 | 147 | 1.6 | 11.3 | 0.00 | 0.00 | 0.00 | 74 | 1011.1 |
| 20260506182006 | 17 | 167 | 1.6 | 11.3 | 0.00 | 0.00 | 0.00 | 74 | 1011.1 |
| 20260506181534 | 17 | 174 | 3.2 | 8.0 | 0.00 | 0.00 | 0.00 | 73 | 1011.3 |
| 20260506181008 | 17 | 156 | 1.6 | 12.9 | 0.00 | 0.00 | 0.00 | 73 | 1011.4 |
| 20260506180509 | 17 | 131 | 4.8 | 12.9 | 0.00 | 0.00 | 0.00 | 73 | 1011.5 |
| 20260506180026 | 18 | 157 | 4.8 | 12.9 | 0.00 | 0.00 | 0.00 | 71 | 1011.6 |
| 20260506175502 | 18 | 172 | 3.2 | 9.7 | 0.00 | 0.00 | 0.00 | 71 | 1011.6 |
| 20260506175003 | 18 | 169 | 3.2 | 12.9 | 0.00 | 0.00 | 0.00 | 70 | 1011.8 |
| 20260506174509 | 19 | 168 | 4.8 | 12.9 | 0.00 | 0.00 | 0.00 | 70 | 1011.8 |
| 20260506174003 | 19 | 172 | 3.2 | 9.7 | 0.00 | 0.00 | 0.00 | 70 | 1011.8 |
| 20260506173509 | 19 | 134 | 4.8 | 9.7 | 0.00 | 0.00 | 0.00 | 69 | 1011.7 |
| 20260506173016 | 19 | 139 | 3.2 | 9.7 | 0.00 | 0.00 | 0.00 | 70 | 1011.8 |
| 20260506172507 | 20 | 162 | 4.8 | 9.7 | 0.00 | 0.00 | 0.00 | 68 | 1011.7 |
| 20260506172011 | 20 | 198 | 3.2 | 11.3 | 0.00 | 0.00 | 0.00 | 68 | 1011.6 |
| 20260506171520 | 20 | 137 | 3.2 | 11.3 | 0.00 | 0.00 | 0.00 | 70 | 1011.8 |
| 20260506171011 | 19 | 161 | 4.8 | 11.3 | 0.00 | 0.00 | 0.00 | 70 | 1011.9 |
| 20260506170508 | 18 | 105 | 4.8 | 11.3 | 0.00 | 0.00 | 0.00 | 72 | 1011.9 |
| 20260506170028 | 18 | 178 | 3.2 | 11.3 | 0.00 | 0.00 | 0.00 | 73 | 1012.2 |
| 20260506165510 | 18 | 203 | 4.8 | 11.3 | 0.00 | 0.00 | 0.00 | 73 | 1012.4 |
| 20260506165009 | 18 | 136 | 3.2 | 12.9 | 0.00 | 0.00 | 0.00 | 73 | 1012.3 |
| 20260506164544 | 18 | 164 | 4.8 | 20.9 | 0.00 | 0.00 | 0.00 | 73 | 1012.4 |
| 20260506164006 | 18 | 179 | 4.8 | 20.9 | 0.00 | 0.00 | 0.00 | 73 | 1012.4 |
| 20260506163505 | 18 | 195 | 4.8 | 14.5 | 0.00 | 0.00 | 0.00 | 72 | 1012.4 |
| 20260506163014 | 18 | 200 | 6.4 | 14.5 | 0.00 | 0.00 | 0.00 | 71 | 1012.4 |
| 20260506162508 | 18 | 160 | 4.8 | 14.5 | 0.00 | 0.00 | 0.00 | 71 | 1012.7 |
| 20260506162010 | 18 | 158 | 4.8 | 14.5 | 0.00 | 0.00 | 0.00 | 71 | 1012.6 |
| 20260506161521 | 19 | 186 | 4.8 | 9.7 | 0.00 | 0.00 | 0.00 | 69 | 1012.7 |
| 20260506161010 | 20 | 159 | 4.8 | 11.3 | 0.00 | 0.00 | 0.00 | 68 | 1012.8 |
| 20260506160506 | 20 | 159 | 3.2 | 16.1 | 0.00 | 0.00 | 0.00 | 68 | 1012.6 |
| 20260506160020 | 20 | 141 | 3.2 | 16.1 | 0.00 | 0.00 | 0.00 | 69 | 1012.9 |
| 20260506155508 | 20 | 158 | 4.8 | 9.7 | 0.00 | 0.00 | 0.00 | 68 | 1012.8 |
| 20260506155010 | 20 | 170 | 4.8 | 8.0 | 0.00 | 0.00 | 0.00 | 69 | 1013.0 |
| 20260506154528 | 19 | 144 | 3.2 | 11.3 | 0.00 | 0.00 | 0.00 | 71 | 1013.1 |
| 20260506154009 | 19 | 206 | 4.8 | 11.3 | 0.00 | 0.00 | 0.00 | 69 | 1013.2 |
| 20260506153511 | 20 | 177 | 4.8 | 8.0 | 0.00 | 0.00 | 0.00 | 68 | 1013.3 |
| 20260506153027 | 20 | 145 | 3.2 | 9.7 | 0.00 | 0.00 | 0.00 | 69 | 1013.3 |
| 20260506152505 | 20 | 147 | 4.8 | 9.7 | 0.00 | 0.00 | 0.00 | 69 | 1013.5 |
| 20260506152006 | 19 | 133 | 4.8 | 9.7 | 0.00 | 0.00 | 0.00 | 70 | 1013.5 |
| 20260506151516 | 19 | 101 | 4.8 | 11.3 | 0.00 | 0.00 | 0.00 | 69 | 1013.4 |
| 20260506151009 | 19 | 172 | 4.8 | 11.3 | 0.00 | 0.00 | 0.00 | 69 | 1013.4 |
| 20260506150507 | 19 | 143 | 3.2 | 11.3 | 0.00 | 0.00 | 0.00 | 71 | 1013.4 |
| 20260506150018 | 18 | 137 | 4.8 | 11.3 | 0.00 | 0.00 | 0.00 | 71 | 1013.4 |
| 20260506145505 | 18 | 186 | 4.8 | 9.7 | 0.00 | 0.00 | 0.00 | 70 | 1013.3 |
| 20260506145012 | 18 | 186 | 4.8 | 11.3 | 0.00 | 0.00 | 0.00 | 71 | 1013.2 |
| 20260506144527 | 18 | 204 | 4.8 | 11.3 | 0.00 | 0.00 | 0.00 | 70 | 1013.2 |
| 20260506144013 | 18 | 158 | 3.2 | 11.3 | 0.00 | 0.00 | 0.00 | 72 | 1013.1 |
| 20260506143512 | 18 | 164 | 3.2 | 8.0 | 0.00 | 0.00 | 0.00 | 72 | 1013.1 |
| 20260506143025 | 18 | 157 | 4.8 | 8.0 | 0.00 | 0.00 | 0.00 | 72 | 1012.9 |
| 20260506142513 | 18 | 186 | 3.2 | 11.3 | 0.00 | 0.00 | 0.00 | 72 | 1012.9 |
| 20260506142009 | 18 | 148 | 3.2 | 12.9 | 0.00 | 0.00 | 0.00 | 71 | 1013.2 |
| 20260506141523 | 19 | 148 | 4.8 | 12.9 | 0.00 | 0.00 | 0.00 | 71 | 1013.2 |
| 20260506141007 | 19 | 99 | 4.8 | 9.7 | 0.00 | 0.00 | 0.00 | 69 | 1013.2 |
| 20260506140508 | 19 | 151 | 4.8 | 12.9 | 0.00 | 0.00 | 0.00 | 70 | 1013.2 |
| 20260506140016 | 19 | 202 | 4.8 | 12.9 | 0.00 | 0.00 | 0.00 | 70 | 1013.2 |
| 20260506135503 | 19 | 175 | 4.8 | 9.7 | 0.00 | 0.00 | 0.00 | 70 | 1013.4 |
| 20260506135003 | 19 | 155 | 3.2 | 9.7 | 0.00 | 0.00 | 0.00 | 70 | 1013.4 |
| 20260506134503 | 19 | 165 | 6.4 | 9.7 | 0.00 | 0.00 | 0.00 | 70 | 1013.3 |
| 20260506134004 | 19 | 159 | 4.8 | 11.3 | 0.00 | 0.00 | 0.00 | 71 | 1013.4 |
| 20260506133504 | 18 | 201 | 3.2 | 11.3 | 0.00 | 0.00 | 0.00 | 72 | 1013.3 |
| 20260506133006 | 18 | 184 | 4.8 | 9.7 | 0.00 | 0.00 | 0.00 | 72 | 1013.3 |
| 20260506132503 | 18 | 171 | 4.8 | 9.7 | 0.00 | 0.00 | 0.00 | 73 | 1013.2 |
| 20260506132003 | 18 | 146 | 3.2 | 11.3 | 0.00 | 0.00 | 0.00 | 73 | 1013.1 |
| 20260506131510 | 18 | 133 | 4.8 | 11.3 | 0.00 | 0.00 | 0.00 | 72 | 1013.3 |
| 20260506131006 | 18 | 121 | 3.2 | 11.3 | 0.00 | 0.00 | 0.00 | 73 | 1013.2 |
| 20260506130506 | 18 | 165 | 3.2 | 9.7 | 0.00 | 0.00 | 0.00 | 74 | 1013.3 |
| 20260506130013 | 17 | 170 | 3.2 | 9.7 | 0.00 | 0.00 | 0.00 | 76 | 1013.2 |
| 20260506125510 | -17 | 148 | 3.2 | 9.7 | 0.00 | 0.00 | 0.00 | 75 | 1013.2 |
| 20260506125007 | 17 | 173 | 4.8 | 9.7 | 0.00 | 0.00 | 0.00 | 75 | 1013.2 |
| 20260506124521 | 17 | 136 | 3.2 | 9.7 | 0.00 | 0.00 | 0.00 | 76 | 1013.4 |
| 20260506124003 | 17 | 181 | 3.2 | 11.3 | 0.00 | 0.00 | 0.00 | 78 | 1013.4 |
| 20260506123503 | 16 | 167 | 3.2 | 9.7 | 0.00 | 0.00 | 0.00 | 78 | 1013.4 |
| 20260506123006 | 16 | 107 | 3.2 | 9.7 | 0.00 | 0.00 | 0.00 | 79 | 1013.3 |
| 20260506122505 | 16 | 177 | 4.8 | 11.3 | 0.00 | 0.00 | 0.00 | 79 | 1013.3 |
| 20260506122005 | 16 | 167 | 3.2 | 11.3 | 0.00 | 0.00 | 0.00 | 80 | 1013.3 |
| 20260506121512 | 16 | 178 | 3.2 | 6.4 | 0.00 | 0.00 | 0.00 | 81 | 1013.2 |
| 20260506121004 | 16 | 191 | 3.2 | 8.0 | 0.00 | 0.00 | 0.00 | 81 | 1013.5 |
| 20260506120506 | 15 | 185 | 3.2 | 9.7 | 0.00 | 0.00 | 0.00 | 82 | 1013.6 |
| 20260506120025 | 15 | 157 | 4.8 | 9.7 | 0.00 | 0.00 | 0.00 | 83 | 1013.7 |
| 20260506115506 | 15 | 180 | 3.2 | 9.7 | 0.00 | 0.00 | 0.00 | 83 | 1013.7 |
| 20260506115005 | 15 | 157 | 4.8 | 8.0 | 0.00 | 0.00 | 0.00 | 83 | 1013.5 |
| 20260506114519 | 15 | 193 | 3.2 | 9.7 | 0.00 | 0.00 | 0.00 | 82 | 1013.5 |
| 20260506114007 | 15 | 159 | 4.8 | 9.7 | 0.00 | 0.00 | 0.00 | 82 | 1013.7 |
| 20260506113511 | 15 | 174 | 4.8 | 8.0 | 0.00 | 0.00 | 0.00 | 83 | 1013.7 |
| 20260506113022 | 15 | 162 | 4.8 | 11.3 | 0.00 | 0.00 | 0.00 | 83 | 1013.7 |
| 20260506112503 | 15 | 152 | 4.8 | 12.9 | 0.00 | 0.00 | 0.00 | 83 | 1013.7 |
| 20260506112003 | 15 | 152 | 3.2 | 12.9 | 0.00 | 0.00 | 0.00 | 84 | 1013.6 |
| 20260506111507 | 15 | 160 | 4.8 | 12.9 | 0.00 | 0.00 | 0.00 | 84 | 1013.6 |
| 20260506111003 | 15 | 169 | 1.6 | 9.7 | 0.00 | 0.00 | 0.00 | 85 | 1013.5 |
| 20260506110504 | 15 | 162 | 3.2 | 8.0 | 0.00 | 0.00 | 0.00 | 85 | 1013.6 |
| 20260506110010 | 15 | 157 | 3.2 | 8.0 | 0.00 | 0.00 | 0.00 | 86 | 1013.6 |
| 20260506105503 | 14 | 184 | 3.2 | 8.0 | 0.00 | 0.00 | 0.00 | 86 | 1013.7 |
| 20260506105006 | 14 | 174 | 3.2 | 9.7 | 0.00 | 0.00 | 0.00 | 86 | 1013.5 |
| 20260506104526 | 14 | 165 | 1.6 | 9.7 | 0.00 | 0.00 | 0.00 | 86 | 1013.5 |
| 20260506104011 | 14 | 194 | 3.2 | 6.4 | 0.00 | 0.00 | 0.00 | 87 | 1013.5 |
| 20260506103508 | 14 | 155 | 1.6 | 6.4 | 0.00 | 0.00 | 0.00 | 87 | 1013.6 |
| 20260506103036 | 14 | 200 | 3.2 | 6.4 | 0.00 | 0.00 | 0.00 | 88 | 1013.6 |
| 20260506102515 | 13 | 187 | 3.2 | 9.7 | 0.00 | 0.00 | 0.00 | 88 | 1013.6 |
| 20260506102011 | 13 | 188 | 4.8 | 9.7 | 0.00 | 0.00 | 0.00 | 88 | 1013.5 |
| 20260506101525 | 13 | 154 | 3.2 | 8.0 | 0.00 | 0.00 | 0.00 | 89 | 1013.6 |
| 20260506101003 | 13 | 159 | 1.6 | 8.0 | 0.00 | 0.00 | 0.00 | 89 | 1013.5 |
| 20260506100502 | 13 | 143 | 3.2 | 8.0 | 0.00 | 0.00 | 0.00 | 89 | 1013.4 |
| 20260506100007 | 13 | 147 | 3.2 | 6.4 | 0.00 | 0.00 | 0.00 | 89 | 1013.3 |
| 20260506095505 | 13 | 188 | 3.2 | 6.4 | 0.00 | 0.00 | 0.00 | 89 | 1013.4 |
| 20260506095004 | 13 | 136 | 3.2 | 6.4 | 0.00 | 0.00 | 0.00 | 89 | 1013.4 |
| 20260506094511 | 13 | 174 | 3.2 | 6.4 | 0.00 | 0.00 | 0.00 | 89 | 1013.3 |
| 20260506094006 | 13 | 166 | 1.6 | 6.4 | 0.00 | 0.00 | 0.00 | 89 | 1013.3 |
| 20260506093508 | 13 | 139 | 3.2 | 9.7 | 0.00 | 0.00 | 0.00 | 89 | 1013.4 |
| 20260506093020 | 13 | 221 | 3.2 | 9.7 | 0.00 | 0.00 | 0.00 | 89 | 1013.5 |
| 20260506092508 | 13 | 172 | 3.2 | 9.7 | 0.00 | 0.00 | 0.00 | 89 | 1013.7 |
| 20260506092011 | 13 | 200 | 1.6 | 8.0 | 0.00 | 0.00 | 0.00 | 90 | 1013.6 |
| 20260506091522 | 13 | 155 | 1.6 | 6.4 | 0.00 | 0.00 | 0.00 | 90 | 1013.6 |
| 20260506091010 | 13 | 178 | 3.2 | 8.0 | 0.00 | 0.00 | 0.00 | 90 | 1013.5 |
| 20260506090509 | 13 | 180 | 4.8 | 8.0 | 0.00 | 0.00 | 0.00 | 90 | 1013.6 |
| 20260506090024 | 13 | 179 | 3.2 | 8.0 | 0.00 | 0.00 | 0.00 | 90 | 1013.4 |
| 20260506085503 | 13 | 184 | 1.6 | 8.0 | 0.00 | 0.00 | 0.00 | 91 | 1013.6 |
| 20260506085005 | 13 | 167 | 1.6 | 8.0 | 0.00 | 0.00 | 0.00 | 91 | 1013.7 |
| 20260506084511 | 13 | 141 | 1.6 | 4.8 | 0.00 | 0.00 | 0.00 | 91 | 1013.9 |
| 20260506084006 | 12 | 213 | 1.6 | 4.8 | 0.00 | 0.00 | 0.00 | 90 | 1013.8 |
| 20260506083506 | 13 | 137 | 1.6 | 4.8 | 0.00 | 0.00 | 0.00 | 90 | 1013.8 |
| 20260506083013 | 13 | 172 | 1.6 | 11.3 | 0.00 | 0.00 | 0.00 | 90 | 1013.7 |
| 20260506082508 | 13 | 168 | 3.2 | 11.3 | 0.00 | 0.00 | 0.00 | 90 | 1013.8 |
| 20260506082004 | 12 | 206 | 1.6 | 6.4 | 0.00 | 0.00 | 0.00 | 90 | 1013.8 |
| 20260506081527 | 12 | 200 | 3.2 | 6.4 | 0.00 | 0.00 | 0.00 | 90 | 1013.9 |
| 20260506081010 | 13 | 176 | 1.6 | 4.8 | 0.00 | 0.00 | 0.00 | 90 | 1014.0 |
| 20260506080509 | 13 | 161 | 3.2 | 8.0 | 0.00 | 0.00 | 0.00 | 90 | 1013.9 |